Harvey, ND

3:35 AM CDT on March 26, 2017 (GMT -0500)
Harvey

Weather History for K5H4 - September, 2013

Change the Weather History Date:

Monday, September 30, 2013

  Actual Average (KRUG) Record (KRUG)
Temperature  
Mean Temperature 60 °F -  
Max Temperature 75 °F 65 °F 95 °F (1989)
Min Temperature 46 °F 37 °F 20 °F (1984)
Degree Days  
Heating Degree Days 4    
Growing Degree Days 10 (Base 50)    
Moisture  
Dew Point 43 °F    
Average Humidity 56    
Maximum Humidity 100    
Minimum Humidity 27    
Precipitation  
Precipitation 0.00 in - - ()
Sea Level Pressure  
Sea Level Pressure 29.53 in    
Wind  
Wind Speed 10 mph (WSW)    
Max Wind Speed 32 mph    
Max Gust Speed 48 mph    
Visibility 10 miles    
Events Rain    
Averages and records for this station are not official NWS values.
T = Trace of Precipitation, MM = Missing Value Source: NWS Daily Summary

Daily Weather History Graph

Daily Weather History Graph

Search for Another Location

Airport or City:

Trip Planner

Search our weather history database for the weather conditions in past years. The results will help you decide how hot, cold, wet, or windy it might be!

Date:

Astronomy

Sep. 30, 2013 Rise Set
Actual Time 7:37 AM CDT 7:20 PM CDT
Civil Twilight 7:07 AM CDT 7:51 PM CDT
Nautical Twilight 6:31 AM CDT 8:27 PM CDT
Astronomical Twilight 5:54 AM CDT 9:03 PM CDT
Moon 3:00 AM CDT (9/30) 5:06 PM CDT (9/30)
Length of Visible Light 12h 44m
Length of Day
11h 42m
Waning Crescent, 19% of the Moon is Illuminated
Sep 30
Waning Crescent
Oct 4
New
Oct 11
First Quarter
Oct 18
Full
Oct 26
Last Quarter

Hourly Weather History & Observations

Time (CDT) Temp. Windchill Dew Point Humidity Pressure Visibility Wind Dir Wind Speed Gust Speed Precip Events Conditions
12:15 AM 57.2 °F - 48.2 °F 72% 29.53 in 10.0 mi West 12.7 mph - N/A   Clear
12:35 AM 57.2 °F - 48.2 °F 72% 29.54 in 10.0 mi West 11.5 mph - N/A   Clear
12:55 AM 59.0 °F - 48.2 °F 67% 29.54 in 10.0 mi West 11.5 mph - N/A   Clear
1:15 AM 57.2 °F - 48.2 °F 72% 29.54 in 10.0 mi WSW 8.1 mph - N/A   Clear
1:35 AM 57.2 °F - 50.0 °F 77% 29.54 in 10.0 mi West 6.9 mph - N/A   Scattered Clouds
1:55 AM 57.2 °F - 48.2 °F 72% 29.54 in 10.0 mi West 5.8 mph - N/A   Scattered Clouds
2:15 AM 57.2 °F - 48.2 °F 72% 29.55 in 10.0 mi West 9.2 mph - N/A   Scattered Clouds
2:35 AM 59.0 °F - 44.6 °F 59% 29.55 in 10.0 mi WNW 12.7 mph 16.1 mph N/A   Mostly Cloudy
2:55 AM 59.0 °F - 44.6 °F 59% 29.55 in 10.0 mi WNW 8.1 mph - N/A   Partly Cloudy
3:15 AM 57.2 °F - 41.0 °F 55% 29.55 in 10.0 mi WNW 8.1 mph - N/A   Clear
3:35 AM 57.2 °F - 39.2 °F 51% 29.56 in 10.0 mi West 8.1 mph - N/A   Clear
3:55 AM 57.2 °F - 39.2 °F 51% 29.56 in 10.0 mi WNW 9.2 mph - N/A   Partly Cloudy
4:15 AM 57.2 °F - 39.2 °F 51% 29.56 in 10.0 mi West 6.9 mph - N/A   Clear
4:35 AM 57.2 °F - 39.2 °F 51% 29.56 in 10.0 mi West 8.1 mph - N/A   Clear
4:55 AM 53.6 °F - 41.0 °F 62% 29.56 in 10.0 mi WSW 6.9 mph - N/A   Partly Cloudy
5:15 AM 53.6 °F - 41.0 °F 62% 29.56 in 10.0 mi West 5.8 mph - N/A   Scattered Clouds
5:35 AM 50.0 °F - 41.0 °F 71% 29.56 in 10.0 mi WSW 5.8 mph - N/A   Partly Cloudy
5:55 AM 48.2 °F - 41.0 °F 76% 29.56 in 10.0 mi WSW 6.9 mph - N/A   Partly Cloudy
6:15 AM 46.4 °F 43.5 °F 41.0 °F 81% 29.55 in 10.0 mi WSW 5.8 mph - N/A   Clear
6:35 AM 46.4 °F 43.5 °F 41.0 °F 81% 29.55 in 10.0 mi West 5.8 mph - N/A   Clear
6:55 AM 51.8 °F - 41.0 °F 67% 29.55 in 10.0 mi West 8.1 mph - N/A   Partly Cloudy
7:15 AM 50.0 °F - 41.0 °F 71% 29.55 in 10.0 mi West 8.1 mph - N/A   Clear
7:35 AM 50.0 °F - 41.0 °F 71% 29.55 in 10.0 mi WSW 5.8 mph - N/A   Scattered Clouds
7:55 AM 48.2 °F - 41.0 °F 76% 29.55 in 10.0 mi SW 6.9 mph - N/A   Partly Cloudy
8:15 AM 46.4 °F 42.9 °F 41.0 °F 81% 29.56 in 10.0 mi SW 6.9 mph - N/A   Clear
8:35 AM 46.4 °F 43.5 °F 41.0 °F 81% 29.55 in 10.0 mi SSW 5.8 mph - N/A   Clear
8:55 AM 50.0 °F - 41.0 °F 71% 29.56 in 10.0 mi SW 8.1 mph - N/A   Clear
9:15 AM 53.6 °F - 41.0 °F 62% 29.56 in 10.0 mi SW 6.9 mph - N/A   Clear
9:35 AM 57.2 °F - 41.0 °F 55% 29.55 in 10.0 mi SW 8.1 mph - N/A   Clear
9:55 AM 60.8 °F - 41.0 °F 48% 29.55 in 10.0 mi WSW 8.1 mph - N/A   Clear
10:15 AM 62.6 °F - 39.2 °F 42% 29.55 in 10.0 mi WSW 10.4 mph - N/A   Clear
10:35 AM 64.4 °F - 37.4 °F 37% 29.55 in 10.0 mi WSW 9.2 mph - N/A   Clear
10:55 AM 64.4 °F - 37.4 °F 37% 29.55 in 10.0 mi WSW 9.2 mph - N/A   Clear
11:15 AM 64.4 °F - 35.6 °F 34% 29.55 in 10.0 mi WSW 9.2 mph - N/A   Clear
11:35 AM 66.2 °F - 37.4 °F 35% 29.54 in 10.0 mi West 10.4 mph - N/A   Clear
11:55 AM 68.0 °F - 35.6 °F 30% 29.54 in 10.0 mi West 8.1 mph - N/A   Clear
12:15 PM 68.0 °F - 35.6 °F 30% 29.54 in 10.0 mi SW 8.1 mph 16.1 mph N/A   Clear
12:35 PM 68.0 °F - 35.6 °F 30% 29.53 in 10.0 mi SW 12.7 mph - N/A   Clear
12:55 PM 68.0 °F - 35.6 °F 30% 29.53 in 10.0 mi West 11.5 mph - N/A   Clear
1:15 PM 68.0 °F - 37.4 °F 33% 29.53 in 10.0 mi SW 10.4 mph - N/A   Partly Cloudy
1:35 PM 68.0 °F - 39.2 °F 35% 29.52 in 10.0 mi SW 12.7 mph - N/A   Clear
1:55 PM 71.6 °F - 39.2 °F 31% 29.51 in 10.0 mi SW 9.2 mph 18.4 mph N/A   Clear
2:15 PM 71.6 °F - 39.2 °F 31% 29.50 in 10.0 mi SSW 9.2 mph - N/A   Clear
2:35 PM 71.6 °F - 39.2 °F 31% 29.49 in 10.0 mi SW 11.5 mph - N/A   Clear
2:55 PM 73.4 °F - 39.2 °F 29% 29.48 in 10.0 mi SW 11.5 mph - N/A   Clear
3:15 PM 75.2 °F - 39.2 °F 27% 29.48 in 10.0 mi SW 13.8 mph 20.7 mph N/A   Clear
3:35 PM 73.4 °F - 41.0 °F 31% 29.47 in 10.0 mi South 9.2 mph 19.6 mph N/A   Clear
3:55 PM 73.4 °F - 41.0 °F 31% 29.47 in 10.0 mi SSW 10.4 mph 20.7 mph N/A   Clear
4:15 PM 73.4 °F - 41.0 °F 31% 29.46 in 10.0 mi SSW 12.7 mph 17.3 mph N/A   Clear
4:35 PM 71.6 °F - 42.8 °F 35% 29.46 in 10.0 mi South 13.8 mph 19.6 mph N/A   Clear
4:55 PM 71.6 °F - 42.8 °F 35% 29.46 in 10.0 mi SSW 11.5 mph 16.1 mph N/A   Clear
5:15 PM 71.6 °F - 42.8 °F 35% 29.46 in 10.0 mi South 9.2 mph - N/A   Clear
5:35 PM 71.6 °F - 44.6 °F 38% 29.45 in 10.0 mi SSW 8.1 mph - N/A   Clear
5:55 PM 69.8 °F - 44.6 °F 40% 29.46 in 10.0 mi South 8.1 mph - N/A   Clear
6:15 PM 69.8 °F - 44.6 °F 40% 29.46 in 10.0 mi SSW 6.9 mph - N/A   Partly Cloudy
6:35 PM 71.6 °F - 44.6 °F 38% 29.45 in 10.0 mi South 8.1 mph - N/A   Partly Cloudy
6:55 PM 71.6 °F - 46.4 °F 41% 29.45 in 10.0 mi South 9.2 mph - N/A   Scattered Clouds
7:15 PM 68.0 °F - 46.4 °F 46% 29.45 in 10.0 mi South 9.2 mph - N/A   Partly Cloudy
7:35 PM 68.0 °F - 46.4 °F 46% 29.45 in 10.0 mi South 9.2 mph - N/A   Clear
7:55 PM 66.2 °F - 46.4 °F 49% 29.46 in 10.0 mi South 8.1 mph - N/A   Clear
8:15 PM 66.2 °F - 46.4 °F 49% 29.46 in 10.0 mi SSW 10.4 mph - N/A   Partly Cloudy
8:35 PM 66.2 °F - 48.2 °F 52% 29.49 in 10.0 mi WSW 20.7 mph 26.5 mph N/A   Scattered Clouds
8:55 PM 60.8 °F - 48.2 °F 63% 29.54 in 10.0 mi WNW 32.2 mph 48.3 mph N/A   Mostly Cloudy
9:15 PM 57.2 °F - 50.0 °F 77% 29.54 in 10.0 mi NW 27.6 mph 42.6 mph N/A Rain Light Rain
9:35 PM 55.4 °F - 50.0 °F 82% 29.56 in 10.0 mi WNW 19.6 mph 32.2 mph N/A   Mostly Cloudy
9:55 PM 53.6 °F - 50.0 °F 88% 29.57 in 10.0 mi WNW 17.3 mph 32.2 mph N/A   Mostly Cloudy
10:15 PM 53.6 °F - 50.0 °F 88% 29.56 in 10.0 mi West 10.4 mph - N/A   Overcast
10:35 PM 51.8 °F - 51.8 °F 100% 29.55 in 9.0 mi Calm Calm - N/A Rain Light Rain
10:55 PM 51.8 °F - 51.8 °F 100% 29.55 in 10.0 mi SW 5.8 mph - N/A   Scattered Clouds
11:15 PM 50.0 °F - 50.0 °F 100% 29.57 in 10.0 mi WSW 10.4 mph - N/A   Clear
11:35 PM 50.0 °F - 50.0 °F 100% 29.56 in 10.0 mi SW 10.4 mph - N/A   Clear
11:55 PM 50.0 °F - 50.0 °F 100% 29.58 in 10.0 mi WSW 10.4 mph - N/A   Clear